Regional Weather Roundup
Issued by NWS

Home | Current Version | Previous Version | Graphics & Text | Print | Product List | Glossary On
Versions: 1 2 3 4 5 6 7 8 9 10 11 12 13 14 15 16 17 18 19 20 21 22 23 24 25 26 27 28 29 30 31 32 33 34 35 36 37 38 39 40 41 42 43 44 45 46 47 48 49 50
000
ASUS43 KTOP 101759
RWRKS

WEATHER ROUNDUP FOR KANSAS
NATIONAL WEATHER SERVICE GOODLAND KS
100 PM CDT THU JUL 10 2014

NOTE:  "FAIR" INDICATES FEW OR NO CLOUDS BELOW 12,000 FEET WITH NO
SIGNIFICANT WEATHER AND/OR OBSTRUCTIONS TO VISIBILITY.

KSZ001>006-013>018-027>032-041>047-101900-
NORTHWEST KANSAS

CITY           SKY/WX    TMP DP  RH WIND       PRES   REMARKS
GOODLAND       SUNNY     81  65  58 S16       30.00F
6HR MIN TEMP:  63; 6HR MAX TEMP:  81;

HAYS           SUNNY     81  66  61 S17G24    30.00F
HILL CITY      SUNNY     85  65  51 S15G22    29.98F
6HR MIN TEMP:  65; 6HR MAX TEMP:  85;

RUSSELL        SUNNY     81  67  62 S18       29.99F
6HR MIN TEMP:  66; 6HR MAX TEMP:  81; 6HR PCP: TRACE;

$$

KSZ061>065-074>080-084>089-101900-
SOUTHWEST KANSAS

CITY           SKY/WX    TMP DP  RH WIND       PRES   REMARKS
DODGE CITY     SUNNY     81  65  58 S18G29    30.00S
6HR MIN TEMP:  65; 6HR MAX TEMP:  81;

ELKHART          N/A     93  57  29 S16         N/A
GARDEN CITY    SUNNY     80  64  58 S22G29    29.98F
6HR MIN TEMP:  64; 6HR MAX TEMP:  80;

GREAT BEND     SUNNY     79  66  65 SE18G25   29.99F
LIBERAL        SUNNY     97  63  32 S17G25    29.98F HX  98
$$

KSZ066>073-081>083-090>101-101900-
SOUTHEAST KANSAS

CITY           SKY/WX    TMP DP  RH WIND       PRES   REMARKS
CHANUTE        MOSUNNY   77  66  68 SE6       30.05S
6HR MIN TEMP:  67; 6HR MAX TEMP:  78; 6HR PCP:  0.03;

COFFEYVILLE    PTSUNNY   79  68  69 SE14G21   30.03F
6HR MIN TEMP:  67; 6HR MAX TEMP:  79; 6HR PCP:  0.43;

HUTCHINSON     SUNNY     81  65  58 SE15      30.02F
6HR MIN TEMP:  67; 6HR MAX TEMP:  81; 6HR PCP:  0.01;

MEDICINE LODGE   N/A     77  66  68 S14G23    30.01F
NEWTON         MOSUNNY   79  63  57 SE13      30.06F
PARSONS        PTSUNNY   75  67  76 VRB3      30.05F
6HR MIN TEMP:  67; 6HR MAX TEMP:  75;

WICHITA INTL   MOSUNNY   79  66  64 SE10      30.01F
6HR MIN TEMP:  65; 6HR MAX TEMP:  80; 6HR PCP:  0.03;

WICHITA JABRA  MOSUNNY   80  68  66 SE9       30.02F
6HR MIN TEMP:  65; 6HR MAX TEMP:  80; 6HR PCP:  0.02;

WINFIELD       MOSUNNY   77  69  76 S9        30.04R
6HR MIN TEMP:  64; 6HR MAX TEMP:  78; 6HR PCP:  0.23;

$$

KSZ007>012-019>026-033>040-048>060-102>105-101900-
NORTHEAST KANSAS

CITY           SKY/WX    TMP DP  RH WIND       PRES   REMARKS
CONCORDIA      SUNNY     81  66  60 SE13G23   30.01F
6HR MIN TEMP:  67; 6HR MAX TEMP:  81;

EMPORIA        MOSUNNY   82  63  52 SE15      30.04S
6HR MIN TEMP:  67; 6HR MAX TEMP:  82;

LAWRENCE       PTSUNNY   84  64  50 SE13      30.05F
6HR MIN TEMP:  67; 6HR MAX TEMP:  84;

MANHATTAN      SUNNY     86  63  45 S15       30.01F
6HR MIN TEMP:  70; 6HR MAX TEMP:  86;

OLATHE IND     PTSUNNY   81  64  56 SE12G17   30.07F
6HR MIN TEMP:  68; 6HR MAX TEMP:  81;

OLATHE EXE     CLOUDY    79  67  66 E10       30.06F
6HR MIN TEMP:  67; 6HR MAX TEMP:  79;

SALINA         SUNNY     84  65  52 SE15      30.01F
6HR MIN TEMP:  68; 6HR MAX TEMP:  84; 6HR PCP: TRACE;

TOPEKA BILLARD MOSUNNY   83  66  56 SE7       30.04F
6HR MIN TEMP:  71; 6HR MAX TEMP:  83;

TOPEKA FORBES  MOSUNNY   82  64  54 SE10      30.05S
6HR MIN TEMP:  69; 6HR MAX TEMP:  82;

$$



USA.gov is the U.S. government's official web portal to all federal, state and local government web resources and services.